Year,Month,Day,Hour,Minute,Value (Times are PST for temperature in C)
2013,08,17,00,00,17.60
2013,08,17,00,05,17.70
2013,08,17,00,06,17.70
2013,08,17,00,07,17.70
2013,08,17,00,08,17.70
2013,08,17,00,09,17.70
2013,08,17,00,10,17.70
2013,08,17,00,11,17.70
2013,08,17,00,12,17.70
2013,08,17,00,13,17.70
2013,08,17,00,14,17.70
2013,08,17,00,15,17.70
2013,08,17,00,16,17.70
2013,08,17,00,17,17.70
2013,08,17,00,18,17.70
2013,08,17,00,19,17.60
2013,08,17,00,20,17.60
2013,08,17,00,21,17.60
2013,08,17,00,22,17.60
2013,08,17,00,23,17.60
2013,08,17,00,24,17.60
2013,08,17,00,25,17.60
2013,08,17,00,26,17.60
2013,08,17,00,27,17.60
2013,08,17,00,28,17.60
2013,08,17,00,29,17.60
2013,08,17,00,30,17.60
2013,08,17,00,31,17.60
2013,08,17,00,32,17.60
2013,08,17,00,33,17.60
2013,08,17,00,34,17.50
2013,08,17,00,35,17.50
2013,08,17,00,36,17.50
2013,08,17,00,37,17.60
2013,08,17,00,38,17.60
2013,08,17,00,39,17.60
2013,08,17,00,40,17.60
2013,08,17,00,41,17.60
2013,08,17,00,42,17.60
2013,08,17,00,43,17.50
2013,08,17,00,44,17.50
2013,08,17,00,45,17.50
2013,08,17,00,46,17.50
2013,08,17,00,47,17.50
2013,08,17,00,48,17.50
2013,08,17,00,49,17.50
2013,08,17,00,50,17.50
2013,08,17,00,51,17.50
2013,08,17,00,52,17.50
2013,08,17,00,53,17.50
2013,08,17,00,54,17.60
2013,08,17,00,55,17.60
2013,08,17,00,56,17.60
2013,08,17,00,57,17.60
2013,08,17,00,58,17.60
2013,08,17,00,59,17.60
2013,08,17,01,00,17.60
2013,08,17,01,01,17.60
2013,08,17,01,02,17.60
2013,08,17,01,03,17.70
2013,08,17,01,04,17.70
2013,08,17,01,05,17.70
2013,08,17,01,06,17.70
2013,08,17,01,07,17.80
2013,08,17,01,08,17.80
2013,08,17,01,09,17.80
2013,08,17,01,10,17.80
2013,08,17,01,11,17.80
2013,08,17,01,12,17.80
2013,08,17,01,13,17.80
2013,08,17,01,14,17.80
2013,08,17,01,15,17.80
2013,08,17,01,16,17.80
2013,08,17,01,17,17.80
2013,08,17,01,18,17.80
2013,08,17,01,19,17.80
2013,08,17,01,20,17.80
2013,08,17,01,21,17.80
2013,08,17,01,22,17.80
2013,08,17,01,23,17.80
2013,08,17,01,24,17.80
2013,08,17,01,25,17.80
2013,08,17,01,26,17.80
2013,08,17,01,27,17.80
2013,08,17,01,28,17.80
2013,08,17,01,29,17.80
2013,08,17,01,30,17.80
2013,08,17,01,31,17.80
2013,08,17,01,32,17.80
2013,08,17,01,33,17.80
2013,08,17,01,34,17.80
2013,08,17,01,35,17.80
2013,08,17,01,36,17.80
2013,08,17,01,37,17.80
2013,08,17,01,38,17.80
2013,08,17,01,39,17.70
2013,08,17,01,40,17.70
2013,08,17,01,41,17.70
2013,08,17,01,42,17.70
2013,08,17,01,43,17.70
2013,08,17,01,44,17.70
2013,08,17,01,45,17.70
2013,08,17,01,46,17.70
2013,08,17,01,47,17.70
2013,08,17,01,48,17.60
2013,08,17,01,49,17.60
2013,08,17,01,50,17.70
2013,08,17,01,51,17.60
2013,08,17,01,52,17.60
2013,08,17,01,53,17.60
2013,08,17,01,54,17.60
2013,08,17,01,55,17.60
2013,08,17,01,56,17.60
2013,08,17,01,57,17.60
2013,08,17,01,58,17.60
2013,08,17,01,59,17.60
2013,08,17,02,00,17.50
2013,08,17,02,01,17.50
2013,08,17,02,02,17.50
2013,08,17,02,03,17.50
2013,08,17,02,04,17.50
2013,08,17,02,05,17.50
2013,08,17,02,06,17.50
2013,08,17,02,07,17.40
2013,08,17,02,08,17.40
2013,08,17,02,09,17.40
2013,08,17,02,10,17.40
2013,08,17,02,11,17.40
2013,08,17,02,12,17.40
2013,08,17,02,13,17.40
2013,08,17,02,14,17.40
2013,08,17,02,15,17.40
2013,08,17,02,16,17.40
2013,08,17,02,17,17.40
2013,08,17,02,18,17.40
2013,08,17,02,19,17.40
2013,08,17,02,20,17.40
2013,08,17,02,21,17.40
2013,08,17,02,22,17.40
2013,08,17,02,23,17.40
2013,08,17,02,24,17.40
2013,08,17,02,25,17.40
2013,08,17,02,26,17.40
2013,08,17,02,27,17.40
2013,08,17,02,28,17.40
2013,08,17,02,29,17.40
2013,08,17,02,30,17.40
2013,08,17,02,31,17.30
2013,08,17,02,32,17.30
2013,08,17,02,33,17.30
2013,08,17,02,34,17.30
2013,08,17,02,35,17.30
2013,08,17,02,36,17.30
2013,08,17,02,37,17.30
2013,08,17,02,38,17.30
2013,08,17,02,39,17.30
2013,08,17,02,40,17.30
2013,08,17,02,41,17.30
2013,08,17,02,42,17.30
2013,08,17,02,43,17.30
2013,08,17,02,44,17.30
2013,08,17,02,45,17.30
2013,08,17,02,46,17.30
2013,08,17,02,47,17.20
2013,08,17,02,48,17.20
2013,08,17,02,49,17.20
2013,08,17,02,50,17.20
2013,08,17,02,51,17.20
2013,08,17,02,52,17.20
2013,08,17,02,53,17.20
2013,08,17,02,54,17.20
2013,08,17,02,55,17.20
2013,08,17,02,56,17.20
2013,08,17,02,57,17.20
2013,08,17,02,58,17.20
2013,08,17,02,59,17.20
2013,08,17,03,00,17.20
2013,08,17,03,01,17.20
2013,08,17,03,02,17.20
2013,08,17,03,03,17.20
2013,08,17,03,04,17.20
2013,08,17,03,05,17.20
2013,08,17,03,06,17.20
2013,08,17,03,07,17.10
2013,08,17,03,08,17.10
2013,08,17,03,09,17.10
2013,08,17,03,10,17.10
2013,08,17,03,11,17.10
2013,08,17,03,12,17.10
2013,08,17,03,13,17.10
2013,08,17,03,14,17.10
2013,08,17,03,15,17.10
2013,08,17,03,16,17.10
2013,08,17,03,17,17.20
2013,08,17,03,18,17.20
2013,08,17,03,19,17.20
2013,08,17,03,20,17.20
2013,08,17,03,21,17.10
2013,08,17,03,22,17.20
2013,08,17,03,23,17.20
2013,08,17,03,24,17.20
2013,08,17,03,25,17.20
2013,08,17,03,26,17.20
2013,08,17,03,27,17.20
2013,08,17,03,28,17.20
2013,08,17,03,29,17.20
2013,08,17,03,30,17.20
2013,08,17,03,31,17.20
2013,08,17,03,32,17.20
2013,08,17,03,33,17.20
2013,08,17,03,34,17.20
2013,08,17,03,35,17.20
2013,08,17,03,36,17.20
2013,08,17,03,37,17.20
2013,08,17,03,38,17.20
2013,08,17,03,39,17.20
2013,08,17,03,40,17.20
2013,08,17,03,41,17.20
2013,08,17,03,42,17.20
2013,08,17,03,43,17.20
2013,08,17,03,44,17.30
2013,08,17,03,45,17.30
2013,08,17,03,46,17.30
2013,08,17,03,47,17.20
2013,08,17,03,48,17.20
2013,08,17,03,49,17.20
2013,08,17,03,50,17.20
2013,08,17,03,51,17.20
2013,08,17,03,52,17.20
2013,08,17,03,53,17.20
2013,08,17,03,54,17.20
2013,08,17,03,55,17.20
2013,08,17,03,56,17.20
2013,08,17,03,57,17.20
2013,08,17,03,58,17.20
2013,08,17,03,59,17.20
2013,08,17,04,00,17.20
2013,08,17,04,01,17.20
2013,08,17,04,02,17.30
2013,08,17,04,03,17.40
2013,08,17,04,04,17.40
2013,08,17,04,05,17.50
2013,08,17,04,06,17.60
2013,08,17,04,07,17.60
2013,08,17,04,08,17.80
2013,08,17,04,09,17.80
2013,08,17,04,10,17.80
2013,08,17,04,11,17.90
2013,08,17,04,12,17.90
2013,08,17,04,13,18.00
2013,08,17,04,14,18.10
2013,08,17,04,15,18.20
2013,08,17,04,16,18.30
2013,08,17,04,17,18.40
2013,08,17,04,18,18.50
2013,08,17,04,19,18.50
2013,08,17,04,20,18.60
2013,08,17,04,21,18.70
2013,08,17,04,22,18.80
2013,08,17,04,23,18.80
2013,08,17,04,24,18.80
2013,08,17,04,25,18.90
2013,08,17,04,26,18.90
2013,08,17,04,27,18.90
2013,08,17,04,28,19.00
2013,08,17,04,29,19.00
2013,08,17,04,30,19.00
2013,08,17,04,31,19.00
2013,08,17,04,32,19.10
2013,08,17,04,33,19.10
2013,08,17,04,34,19.10
2013,08,17,04,35,19.10
2013,08,17,04,36,19.10
2013,08,17,04,37,19.10
2013,08,17,04,38,19.10
2013,08,17,04,39,19.10
2013,08,17,04,40,19.10
2013,08,17,04,41,19.10
2013,08,17,04,42,19.10
2013,08,17,04,43,19.00
2013,08,17,04,44,19.00
2013,08,17,04,45,19.00
2013,08,17,04,46,19.00
2013,08,17,04,47,19.00
2013,08,17,04,48,19.00
2013,08,17,04,49,18.90
2013,08,17,04,50,18.90
2013,08,17,04,51,18.90
2013,08,17,04,52,18.90
2013,08,17,04,53,18.90
2013,08,17,04,54,18.90
2013,08,17,04,55,18.90
2013,08,17,04,56,18.90
2013,08,17,04,57,18.90
2013,08,17,04,58,18.90
2013,08,17,04,59,18.90
2013,08,17,05,00,18.90
2013,08,17,05,01,18.90
2013,08,17,05,02,18.90
2013,08,17,05,03,18.90
2013,08,17,05,04,18.90
2013,08,17,05,05,18.90
2013,08,17,05,06,18.90
2013,08,17,05,07,18.90
2013,08,17,05,08,18.90
2013,08,17,05,09,18.90
2013,08,17,05,10,18.80
2013,08,17,05,11,18.80
2013,08,17,05,12,18.80
2013,08,17,05,13,18.80
2013,08,17,05,14,18.80
2013,08,17,05,15,18.80
2013,08,17,05,16,18.80
2013,08,17,05,17,18.80
2013,08,17,05,18,18.80
2013,08,17,05,19,18.80
2013,08,17,05,20,18.80
2013,08,17,05,21,18.80
2013,08,17,05,22,18.80
2013,08,17,05,23,18.80
2013,08,17,05,24,18.90
2013,08,17,05,25,18.90
2013,08,17,05,26,18.90
2013,08,17,05,27,19.00
2013,08,17,05,28,19.00
2013,08,17,05,29,19.10
2013,08,17,05,30,19.10
2013,08,17,05,31,19.10
2013,08,17,05,32,19.10
2013,08,17,05,33,19.10
2013,08,17,05,34,19.10
2013,08,17,05,35,19.10
2013,08,17,05,36,19.10
2013,08,17,05,37,19.10
2013,08,17,05,38,19.10
2013,08,17,05,39,19.10
2013,08,17,05,40,19.10
2013,08,17,05,41,19.10
2013,08,17,05,42,19.10
2013,08,17,05,43,19.10
2013,08,17,05,44,19.10
2013,08,17,05,45,19.10
2013,08,17,05,46,19.10
2013,08,17,05,47,19.10
2013,08,17,05,48,19.10
2013,08,17,05,49,19.00
2013,08,17,05,50,19.00
2013,08,17,05,51,19.00
2013,08,17,05,52,18.90
2013,08,17,05,53,18.90
2013,08,17,05,54,18.90
2013,08,17,05,55,18.90
2013,08,17,05,56,18.90
2013,08,17,05,57,18.90
2013,08,17,05,58,18.90
2013,08,17,05,59,18.90
2013,08,17,06,00,18.90
2013,08,17,06,01,18.90
2013,08,17,06,02,18.90
2013,08,17,06,03,18.90
2013,08,17,06,04,18.90
2013,08,17,06,05,18.90
2013,08,17,06,06,19.00
2013,08,17,06,07,19.00
2013,08,17,06,08,19.00
2013,08,17,06,09,19.10
2013,08,17,06,10,19.10
2013,08,17,06,11,19.10
2013,08,17,06,12,19.10
2013,08,17,06,13,19.10
2013,08,17,06,14,19.10
2013,08,17,06,15,19.00
2013,08,17,06,16,19.00
2013,08,17,06,17,19.00
2013,08,17,06,18,19.00
2013,08,17,06,19,19.00
2013,08,17,06,20,19.00
2013,08,17,06,21,19.00
2013,08,17,06,22,18.90
2013,08,17,06,23,18.90
2013,08,17,06,24,18.80
2013,08,17,06,25,18.80
2013,08,17,06,26,18.80
2013,08,17,06,27,18.70
2013,08,17,06,28,18.70
2013,08,17,06,29,18.70
2013,08,17,06,30,18.70
2013,08,17,06,31,18.70
2013,08,17,06,32,18.70
2013,08,17,06,33,18.60
2013,08,17,06,34,18.60
2013,08,17,06,35,18.60
2013,08,17,06,36,18.60
2013,08,17,06,37,18.60
2013,08,17,06,38,18.60
2013,08,17,06,39,18.60
2013,08,17,06,40,18.50
2013,08,17,06,41,18.50
2013,08,17,06,42,18.50
2013,08,17,06,43,18.50
2013,08,17,06,44,18.50
2013,08,17,06,45,18.40
2013,08,17,06,46,18.40
2013,08,17,06,47,18.40
2013,08,17,06,48,18.40
2013,08,17,06,49,18.40
2013,08,17,06,50,18.40
2013,08,17,06,51,18.40
2013,08,17,06,52,18.40
2013,08,17,06,53,18.40
2013,08,17,06,54,18.40
2013,08,17,06,55,18.40
2013,08,17,06,56,18.40
2013,08,17,06,57,18.40
2013,08,17,06,58,18.40
2013,08,17,06,59,18.50
2013,08,17,07,00,18.50
2013,08,17,07,01,18.60
2013,08,17,07,02,18.60
2013,08,17,07,03,18.60
2013,08,17,07,04,18.60
2013,08,17,07,05,18.60
2013,08,17,07,06,18.70
2013,08,17,07,07,18.70
2013,08,17,07,08,18.70
2013,08,17,07,09,18.70
2013,08,17,07,10,18.70
2013,08,17,07,11,18.70
2013,08,17,07,12,18.70
2013,08,17,07,13,18.70
2013,08,17,07,14,18.70
2013,08,17,07,15,18.70
2013,08,17,07,16,18.70
2013,08,17,07,17,18.70
2013,08,17,07,18,18.70
2013,08,17,07,19,18.70
2013,08,17,07,20,18.70
2013,08,17,07,21,18.70
2013,08,17,07,22,18.70
2013,08,17,07,23,18.70
2013,08,17,07,24,18.70
2013,08,17,07,25,18.70
2013,08,17,07,26,18.70
2013,08,17,07,27,18.70
2013,08,17,07,28,18.80
2013,08,17,07,29,18.80
2013,08,17,07,30,18.80
2013,08,17,07,31,18.80
2013,08,17,07,32,18.80
2013,08,17,07,33,18.80
2013,08,17,07,34,18.80
2013,08,17,07,35,18.80
2013,08,17,07,36,18.80
2013,08,17,07,37,18.80
2013,08,17,07,38,18.70
2013,08,17,07,39,18.70
2013,08,17,07,40,18.70
2013,08,17,07,41,18.70
2013,08,17,07,42,18.70
2013,08,17,07,43,18.70
2013,08,17,07,44,18.70
2013,08,17,07,45,18.60
2013,08,17,07,46,18.60
2013,08,17,07,47,18.60
2013,08,17,07,48,18.60
2013,08,17,07,49,18.60
2013,08,17,07,50,18.60
2013,08,17,07,51,18.60
2013,08,17,07,52,18.60
2013,08,17,07,53,18.60
2013,08,17,07,54,18.70
2013,08,17,07,55,18.70
2013,08,17,07,56,18.70
2013,08,17,07,57,18.70
2013,08,17,07,58,18.70
2013,08,17,07,59,18.70
2013,08,17,08,00,18.70
2013,08,17,08,01,18.70
2013,08,17,08,02,18.70
2013,08,17,08,03,18.70
2013,08,17,08,04,18.70
2013,08,17,08,05,18.70
2013,08,17,08,06,18.70
2013,08,17,08,07,18.70
2013,08,17,08,08,18.70
2013,08,17,08,09,18.70
2013,08,17,08,10,18.70
2013,08,17,08,11,18.70
2013,08,17,08,12,18.70
2013,08,17,08,13,18.70
2013,08,17,08,14,18.70
2013,08,17,08,15,18.70
2013,08,17,08,16,18.70
2013,08,17,08,17,18.70
2013,08,17,08,18,18.80
2013,08,17,08,19,18.80
2013,08,17,08,20,18.80
2013,08,17,08,21,18.80
2013,08,17,08,22,18.80
2013,08,17,08,23,18.80
2013,08,17,08,24,18.80
2013,08,17,08,25,18.80
2013,08,17,08,26,18.80
2013,08,17,08,27,18.80
2013,08,17,08,28,18.90
2013,08,17,08,29,18.90
2013,08,17,08,30,18.90
2013,08,17,08,31,18.90
2013,08,17,08,32,18.90
2013,08,17,08,33,18.90
2013,08,17,08,34,18.90
2013,08,17,08,35,18.90
2013,08,17,08,36,19.00
2013,08,17,08,37,19.00
2013,08,17,08,38,19.00
2013,08,17,08,39,19.00
2013,08,17,08,40,19.00
2013,08,17,08,41,19.00
2013,08,17,08,42,19.10
2013,08,17,08,43,19.10
2013,08,17,08,44,19.10
2013,08,17,08,45,19.10
2013,08,17,08,46,19.10
2013,08,17,08,47,19.10
2013,08,17,08,48,19.10
2013,08,17,08,49,19.10
2013,08,17,08,50,19.10
2013,08,17,08,51,19.10
2013,08,17,08,52,19.10
2013,08,17,08,53,19.10
2013,08,17,08,54,19.10
2013,08,17,08,55,19.20
2013,08,17,08,56,19.20
2013,08,17,08,57,19.20
2013,08,17,08,58,19.20
2013,08,17,08,59,19.20
2013,08,17,09,00,19.20
2013,08,17,09,01,19.30
2013,08,17,09,02,19.30
2013,08,17,09,03,19.30
2013,08,17,09,04,19.30
2013,08,17,09,05,19.30
2013,08,17,09,06,19.30
2013,08,17,09,07,19.30
2013,08,17,09,08,19.30
2013,08,17,09,09,19.30
2013,08,17,09,10,19.30
2013,08,17,09,11,19.30
2013,08,17,09,12,19.30
2013,08,17,09,13,19.20
2013,08,17,09,14,19.20
2013,08,17,09,15,19.30
2013,08,17,09,16,19.20
2013,08,17,09,17,19.20
2013,08,17,09,18,19.20
2013,08,17,09,19,19.20
2013,08,17,09,20,19.20
2013,08,17,09,21,19.20
2013,08,17,09,22,19.20
2013,08,17,09,23,19.20
2013,08,17,09,24,19.20
2013,08,17,09,25,19.20
2013,08,17,09,26,19.20
2013,08,17,09,27,19.20
2013,08,17,09,28,19.20
2013,08,17,09,29,19.20
2013,08,17,09,30,19.20
2013,08,17,09,31,19.20
2013,08,17,09,32,19.20
2013,08,17,09,33,19.20
2013,08,17,09,34,19.20
2013,08,17,09,35,19.20
2013,08,17,09,36,19.20
2013,08,17,09,37,19.20
2013,08,17,09,38,19.20
2013,08,17,09,39,19.20
2013,08,17,09,40,19.20
2013,08,17,09,41,19.20
2013,08,17,09,42,19.30
2013,08,17,09,43,19.30
2013,08,17,09,44,19.40
2013,08,17,09,45,19.40
2013,08,17,09,46,19.50
2013,08,17,09,47,19.60
2013,08,17,09,48,19.60
2013,08,17,09,49,19.60
2013,08,17,09,50,19.70
2013,08,17,09,51,19.80
2013,08,17,09,52,19.90
2013,08,17,09,53,19.90
2013,08,17,09,54,20.00
2013,08,17,09,55,20.20
2013,08,17,09,56,20.30
2013,08,17,09,57,20.30
2013,08,17,09,58,20.40
2013,08,17,09,59,20.40
2013,08,17,10,00,20.40
2013,08,17,10,01,20.40
2013,08,17,10,02,20.40
2013,08,17,10,03,20.40
2013,08,17,10,04,20.40
2013,08,17,10,05,20.40
2013,08,17,10,06,20.40
2013,08,17,10,07,20.40
2013,08,17,10,08,20.40
2013,08,17,10,09,20.40
2013,08,17,10,10,20.40
2013,08,17,10,11,20.40
2013,08,17,10,12,20.40
2013,08,17,10,13,20.40
2013,08,17,10,14,20.50
2013,08,17,10,15,20.50
2013,08,17,10,16,20.60
2013,08,17,10,17,20.70
2013,08,17,10,18,20.80
2013,08,17,10,19,20.90
2013,08,17,10,20,20.90
2013,08,17,10,21,20.90
2013,08,17,10,22,21.00
2013,08,17,10,23,21.00
2013,08,17,10,24,21.00
2013,08,17,10,25,21.00
2013,08,17,10,26,20.90
2013,08,17,10,27,20.80
2013,08,17,10,28,20.80
2013,08,17,10,29,20.70
2013,08,17,10,30,20.70
2013,08,17,10,31,20.70
2013,08,17,10,32,20.70
2013,08,17,10,33,20.70
2013,08,17,10,34,20.70
2013,08,17,10,35,20.70
2013,08,17,10,36,20.60
2013,08,17,10,37,20.60
2013,08,17,10,38,20.50
2013,08,17,10,39,20.50
2013,08,17,10,40,20.40
2013,08,17,10,41,20.40
2013,08,17,10,42,20.40
2013,08,17,10,43,20.40
2013,08,17,10,44,20.40
2013,08,17,10,45,20.30
2013,08,17,10,46,20.30
2013,08,17,10,47,20.30
2013,08,17,10,48,20.30
2013,08,17,10,49,20.20
2013,08,17,10,50,20.20
2013,08,17,10,51,20.20
2013,08,17,10,52,20.10
2013,08,17,10,53,20.10
2013,08,17,10,54,20.10
2013,08,17,10,55,20.10
2013,08,17,10,56,20.10
2013,08,17,10,57,20.10
2013,08,17,10,58,20.10
2013,08,17,10,59,20.10
2013,08,17,11,00,20.10
2013,08,17,11,01,20.10
2013,08,17,11,02,20.20
2013,08,17,11,03,20.20
2013,08,17,11,04,20.20
2013,08,17,11,05,20.10
2013,08,17,11,06,20.10
2013,08,17,11,07,20.10
2013,08,17,11,08,20.10
2013,08,17,11,09,20.10
2013,08,17,11,10,20.20
2013,08,17,11,11,20.20
2013,08,17,11,12,20.20
2013,08,17,11,13,20.30
2013,08,17,11,14,20.40
2013,08,17,11,15,20.40
2013,08,17,11,16,20.40
2013,08,17,11,17,20.40
2013,08,17,11,18,20.50
2013,08,17,11,19,20.60
2013,08,17,11,20,20.70
2013,08,17,11,21,20.70
2013,08,17,11,22,20.70
2013,08,17,11,23,20.80
2013,08,17,11,24,20.80
2013,08,17,11,25,20.90
2013,08,17,11,26,20.90
2013,08,17,11,27,21.00
2013,08,17,11,28,20.90
2013,08,17,11,29,20.90
2013,08,17,11,30,20.90
2013,08,17,11,31,21.00
2013,08,17,11,32,21.10
2013,08,17,11,33,21.10
2013,08,17,11,34,21.10
2013,08,17,11,35,21.10
2013,08,17,11,36,21.10
2013,08,17,11,37,21.10
2013,08,17,11,38,21.10
2013,08,17,11,39,21.00
2013,08,17,11,40,21.00
2013,08,17,11,41,21.00
2013,08,17,11,42,21.10
2013,08,17,11,43,21.10
2013,08,17,11,44,21.20
2013,08,17,11,45,21.30
2013,08,17,11,46,21.30
2013,08,17,11,47,21.30
2013,08,17,11,48,21.30
2013,08,17,11,49,21.30
2013,08,17,11,50,21.30
2013,08,17,11,51,21.20
2013,08,17,11,52,21.00
2013,08,17,11,53,20.80
2013,08,17,11,54,20.70
2013,08,17,11,55,20.70
2013,08,17,11,56,20.60
2013,08,17,11,57,20.50
2013,08,17,11,58,20.50
2013,08,17,11,59,20.60
2013,08,17,12,00,20.70
2013,08,17,12,01,20.80
2013,08,17,12,02,20.80
2013,08,17,12,03,20.70
2013,08,17,12,04,20.70
2013,08,17,12,05,20.70
2013,08,17,12,06,20.70
2013,08,17,12,07,20.70
2013,08,17,12,08,20.70
2013,08,17,12,09,20.70
2013,08,17,12,10,20.60
2013,08,17,12,11,20.60
2013,08,17,12,12,20.50
2013,08,17,12,13,20.40
2013,08,17,12,14,20.30
2013,08,17,12,15,20.30
2013,08,17,12,16,20.30
2013,08,17,12,17,20.40
2013,08,17,12,18,20.40
2013,08,17,12,19,20.40
2013,08,17,12,20,20.50
2013,08,17,12,21,20.60
2013,08,17,12,22,20.60
2013,08,17,12,23,20.60
2013,08,17,12,24,20.60
2013,08,17,12,25,20.60
2013,08,17,12,26,20.60
2013,08,17,12,27,20.60
2013,08,17,12,28,20.50
2013,08,17,12,29,20.40
2013,08,17,12,30,20.40
2013,08,17,12,31,20.50
2013,08,17,12,32,20.50
2013,08,17,12,33,20.50
2013,08,17,12,34,20.50
2013,08,17,12,35,20.50
2013,08,17,12,36,20.50
2013,08,17,12,37,20.50
2013,08,17,12,38,20.50
2013,08,17,12,39,20.60
2013,08,17,12,40,20.60
2013,08,17,12,41,20.60
2013,08,17,12,42,20.60
2013,08,17,12,43,20.70
2013,08,17,12,44,20.80
2013,08,17,12,45,20.80
2013,08,17,12,46,20.80
2013,08,17,12,47,20.90
2013,08,17,12,48,21.00
2013,08,17,12,49,21.10
2013,08,17,12,50,21.20
2013,08,17,12,51,21.30
2013,08,17,12,52,21.30
2013,08,17,12,53,21.40
2013,08,17,12,54,21.40
2013,08,17,12,55,21.40
2013,08,17,12,56,21.40
2013,08,17,12,57,21.40
2013,08,17,12,58,21.30
2013,08,17,12,59,21.30
2013,08,17,13,00,21.30
2013,08,17,13,01,21.40
2013,08,17,13,02,21.30
2013,08,17,13,03,21.40
2013,08,17,13,04,21.50
2013,08,17,13,05,21.60
2013,08,17,13,06,21.70
2013,08,17,13,07,21.80
2013,08,17,13,08,21.70
2013,08,17,13,09,21.70
2013,08,17,13,10,21.60
2013,08,17,13,11,21.60
2013,08,17,13,12,21.70
2013,08,17,13,13,21.70
2013,08,17,13,14,21.70
2013,08,17,13,15,21.80
2013,08,17,13,16,21.80
2013,08,17,13,17,21.80
2013,08,17,13,18,21.80
2013,08,17,13,19,21.80
2013,08,17,13,20,21.80
2013,08,17,13,21,21.90
2013,08,17,13,22,21.90
2013,08,17,13,23,21.80
2013,08,17,13,24,21.80
2013,08,17,13,25,21.70
2013,08,17,13,26,21.70
2013,08,17,13,27,21.70
2013,08,17,13,28,21.70
2013,08,17,13,29,21.80
2013,08,17,13,30,21.90
2013,08,17,13,31,22.00
2013,08,17,13,32,22.10
2013,08,17,13,33,22.10
2013,08,17,13,34,22.00
2013,08,17,13,35,21.90
2013,08,17,13,36,21.90
2013,08,17,13,37,21.80
2013,08,17,13,38,21.70
2013,08,17,13,39,21.70
2013,08,17,13,40,21.70
2013,08,17,13,41,21.70
2013,08,17,13,42,21.70
2013,08,17,13,43,21.80
2013,08,17,13,44,21.80
2013,08,17,13,45,21.80
2013,08,17,13,46,21.80
2013,08,17,13,47,21.80
2013,08,17,13,48,21.70
2013,08,17,13,49,21.70
2013,08,17,13,50,21.80
2013,08,17,13,51,21.90
2013,08,17,13,52,21.90
2013,08,17,13,53,21.90
2013,08,17,13,54,21.90
2013,08,17,13,55,21.90
2013,08,17,13,56,21.80
2013,08,17,13,57,21.80
2013,08,17,13,58,21.70
2013,08,17,13,59,21.60
2013,08,17,14,00,21.50
2013,08,17,14,01,21.50
2013,08,17,14,02,21.50
2013,08,17,14,03,21.50
2013,08,17,14,04,21.40
2013,08,17,14,05,21.40
2013,08,17,14,06,21.40
2013,08,17,14,07,21.40
2013,08,17,14,08,21.40
2013,08,17,14,09,21.50
2013,08,17,14,10,21.60
2013,08,17,14,11,21.70
2013,08,17,14,12,21.70
2013,08,17,14,13,21.80
2013,08,17,14,14,21.80
2013,08,17,14,15,21.80
2013,08,17,14,16,21.90
2013,08,17,14,17,21.90
2013,08,17,14,18,21.90
2013,08,17,14,19,21.90
2013,08,17,14,20,21.90
2013,08,17,14,21,22.00
2013,08,17,14,22,22.00
2013,08,17,14,23,22.00
2013,08,17,14,24,22.10
2013,08,17,14,25,22.10
2013,08,17,14,26,22.10
2013,08,17,14,27,22.00
2013,08,17,14,28,22.00
2013,08,17,14,29,22.00
2013,08,17,14,30,22.10
2013,08,17,14,31,22.10
2013,08,17,14,32,22.00
2013,08,17,14,33,21.90
2013,08,17,14,34,21.90
2013,08,17,14,35,21.80
2013,08,17,14,36,21.80
2013,08,17,14,37,21.80
2013,08,17,14,38,21.80
2013,08,17,14,39,21.80
2013,08,17,14,40,21.80
2013,08,17,14,41,21.90
2013,08,17,14,42,22.00
2013,08,17,14,43,22.10
2013,08,17,14,44,22.20
2013,08,17,14,45,22.20
2013,08,17,14,46,22.20
2013,08,17,14,47,22.20
2013,08,17,14,48,22.20
2013,08,17,14,49,22.20
2013,08,17,14,50,22.20
2013,08,17,14,51,22.20
2013,08,17,14,52,22.20
2013,08,17,14,53,22.10
2013,08,17,14,54,22.10
2013,08,17,14,55,22.20
2013,08,17,14,56,22.10
2013,08,17,14,57,22.10
2013,08,17,14,58,22.20
2013,08,17,14,59,22.20
2013,08,17,15,00,22.20
2013,08,17,15,01,22.20
2013,08,17,15,02,22.30
2013,08,17,15,03,22.30
2013,08,17,15,04,22.40
2013,08,17,15,05,22.40
2013,08,17,15,06,22.40
2013,08,17,15,07,22.40
2013,08,17,15,08,22.30
2013,08,17,15,09,22.30
2013,08,17,15,10,22.30
2013,08,17,15,11,22.30
2013,08,17,15,12,22.20
2013,08,17,15,13,22.30
2013,08,17,15,14,22.30
2013,08,17,15,15,22.30
2013,08,17,15,16,22.40
2013,08,17,15,17,22.40
2013,08,17,15,18,22.40
2013,08,17,15,19,22.40
2013,08,17,15,20,22.40
2013,08,17,15,21,22.40
2013,08,17,15,22,22.40
2013,08,17,15,23,22.40
2013,08,17,15,24,22.40
2013,08,17,15,25,22.50
2013,08,17,15,26,22.40
2013,08,17,15,27,22.40
2013,08,17,15,28,22.30
2013,08,17,15,29,22.20
2013,08,17,15,30,22.20
2013,08,17,15,31,22.20
2013,08,17,15,32,22.20
2013,08,17,15,33,22.20
2013,08,17,15,34,22.10
2013,08,17,15,35,22.00
2013,08,17,15,36,22.00
2013,08,17,15,37,21.90
2013,08,17,15,38,21.90
2013,08,17,15,39,21.90
2013,08,17,15,40,21.80
2013,08,17,15,41,21.80
2013,08,17,15,42,21.90
2013,08,17,15,43,21.90
2013,08,17,15,44,22.00
2013,08,17,15,45,22.10
2013,08,17,15,46,22.20
2013,08,17,15,47,22.20
2013,08,17,15,48,22.20
2013,08,17,15,49,22.20
2013,08,17,15,50,22.20
2013,08,17,15,51,22.20
2013,08,17,15,52,22.10
2013,08,17,15,53,22.20
2013,08,17,15,54,22.20
2013,08,17,15,55,22.20
2013,08,17,15,56,22.20
2013,08,17,15,57,22.20
2013,08,17,15,58,22.30
2013,08,17,15,59,22.30
2013,08,17,16,00,22.20
2013,08,17,16,01,22.10
2013,08,17,16,02,22.10
2013,08,17,16,03,22.20
2013,08,17,16,04,22.20
2013,08,17,16,05,22.30
2013,08,17,16,06,22.30
2013,08,17,16,07,22.40
2013,08,17,16,08,22.40
2013,08,17,16,09,22.40
2013,08,17,16,10,22.40
2013,08,17,16,11,22.40
2013,08,17,16,12,22.40
2013,08,17,16,13,22.40
2013,08,17,16,14,22.40
2013,08,17,16,15,22.40
2013,08,17,16,16,22.40
2013,08,17,16,17,22.40
2013,08,17,16,18,22.40
2013,08,17,16,19,22.40
2013,08,17,16,20,22.50
2013,08,17,16,21,22.50
2013,08,17,16,22,22.50
2013,08,17,16,23,22.50
2013,08,17,16,24,22.50
2013,08,17,16,25,22.50
2013,08,17,16,26,22.60
2013,08,17,16,27,22.60
2013,08,17,16,28,22.70
2013,08,17,16,29,22.70
2013,08,17,16,30,22.60
2013,08,17,16,31,22.60
2013,08,17,16,32,22.60
2013,08,17,16,33,22.60
2013,08,17,16,34,22.60
2013,08,17,16,35,22.50
2013,08,17,16,36,22.40
2013,08,17,16,37,22.40
2013,08,17,16,38,22.30
2013,08,17,16,39,22.30
2013,08,17,16,40,22.20
2013,08,17,16,41,22.20
2013,08,17,16,42,22.10
2013,08,17,16,43,22.10
2013,08,17,16,44,22.00
2013,08,17,16,45,22.00
2013,08,17,16,46,22.00
2013,08,17,16,47,22.10
2013,08,17,16,48,22.10
2013,08,17,16,49,22.20
2013,08,17,16,50,22.20
2013,08,17,16,51,22.20
2013,08,17,16,52,22.30
2013,08,17,16,53,22.30
2013,08,17,16,54,22.20
2013,08,17,16,55,22.10
2013,08,17,16,56,22.10
2013,08,17,16,57,22.00
2013,08,17,16,58,21.90
2013,08,17,16,59,21.80
2013,08,17,17,00,21.70
2013,08,17,17,01,21.60
2013,08,17,17,02,21.60
2013,08,17,17,03,21.60
2013,08,17,17,04,21.60
2013,08,17,17,05,21.70
2013,08,17,17,06,21.80
2013,08,17,17,07,21.80
2013,08,17,17,08,21.80
2013,08,17,17,09,21.70
2013,08,17,17,10,21.70
2013,08,17,17,11,21.60
2013,08,17,17,12,21.60
2013,08,17,17,13,21.50
2013,08,17,17,14,21.40
2013,08,17,17,15,21.40
2013,08,17,17,16,21.40
2013,08,17,17,17,21.40
2013,08,17,17,18,21.30
2013,08,17,17,19,21.30
2013,08,17,17,20,21.30
2013,08,17,17,21,21.30
2013,08,17,17,22,21.30
2013,08,17,17,23,21.30